This is the latest recevied weather packets stored in our database for station/object WA3NOA-2. If no packets are shown the sender has not sent any weather packets the latest 10 day(s).
| Time | Temp. | Humidity | Pressure | Rain* | Wind** | Luminosity | Snow |
|---|---|---|---|---|---|---|---|
| 1777914188 | 21.11° C | 43% | 1005.9 hPa | 0 mm | - | - | - |
| 1777914127 | 21.11° C | 38% | 1006 hPa | 0 mm | - | - | - |
| 1777913827 | 21.11° C | 38% | 1006 hPa | 0 mm | - | - | - |
| 1777913527 | 21.11° C | 37% | 1006.2 hPa | 0 mm | - | - | - |
| 1777913288 | 21.11° C | 37% | 1006.2 hPa | 0 mm | - | - | - |
| 1777913227 | 21.11° C | 39% | 1006.2 hPa | 0 mm | - | - | - |
| 1777912927 | 21.11° C | 38% | 1006.2 hPa | 0 mm | - | - | - |
| 1777912627 | 21.11° C | 36% | 1006.2 hPa | 0 mm | - | - | - |
| 1777912388 | 20.56° C | 39% | 1006.4 hPa | 0 mm | - | - | - |
| 1777912327 | 20.56° C | 38% | 1006.3 hPa | 0 mm | - | - | - |
| 1777912027 | 20.56° C | 38% | 1006.4 hPa | 0 mm | - | - | - |
| 1777911727 | 21.11° C | 42% | 1006.3 hPa | 0 mm | - | - | - |
| 1777911489 | 20.56° C | 39% | 1006.4 hPa | 0 mm | - | - | - |
| 1777911427 | 20.56° C | 44% | 1006.5 hPa | 0 mm | - | - | - |
| 1777911127 | 21.11° C | 38% | 1006.6 hPa | 0 mm | - | - | - |
| 1777910827 | 20.56° C | 38% | 1006.8 hPa | 0 mm | - | - | - |
| 1777910588 | 20.56° C | 40% | 1006.7 hPa | 0 mm | - | - | - |
| 1777910527 | 20.56° C | 40% | 1006.7 hPa | 0 mm | - | - | - |
| 1777910227 | 20° C | 40% | 1006.8 hPa | 0 mm | - | - | - |
| 1777909927 | 20° C | 39% | 1006.9 hPa | 0 mm | - | - | - |
| 1777909688 | 20° C | 39% | 1007 hPa | 0 mm | - | - | - |
| 1777909627 | 20° C | 42% | 1007.1 hPa | 0 mm | - | - | - |
| 1777909327 | 20° C | 40% | 1007.1 hPa | 0 mm | - | - | - |
| 1777909027 | 20° C | 45% | 1007.1 hPa | 0 mm | - | - | - |
| 1777908788 | 19.44° C | 40% | 1007.2 hPa | 0 mm | - | - | - |
* Rain latest hour (hover to see other rain measurements)
** Current wind speed in m/s (hover to see current wind gust speed)